This is the latest recevied weather packets stored in our database for station/object K2CCS. If no packets are shown the sender has not sent any weather packets the latest 1 day(s).
| Time | Temp. | Humidity | Pressure | Rain* | Wind** | Luminosity | Snow |
|---|---|---|---|---|---|---|---|
| 1777998155 | 25° C | 47% | 1008.5 hPa | 0 mm | 1.79 m/s, 97° | 691 W/m² | - |
| 1777997852 | 25° C | 48% | 1008.6 hPa | 0 mm | 0.45 m/s, 143° | 689 W/m² | - |
| 1777997550 | 25° C | 48% | 1008.6 hPa | 0 mm | 0.45 m/s, 145° | 701 W/m² | - |
| 1777997247 | 25° C | 47% | 1009.1 hPa | 0 mm | 1.79 m/s, 131° | 688 W/m² | - |
| 1777996945 | 25° C | 47% | 1009.1 hPa | 0 mm | 2.68 m/s, 122° | 720 W/m² | - |
| 1777996641 | 24.44° C | 48% | 1009.2 hPa | 0 mm | 1.34 m/s, 196° | 725 W/m² | - |
| 1777996337 | 24.44° C | 50% | 1009.2 hPa | 0 mm | 1.79 m/s, 183° | 714 W/m² | - |
| 1777996033 | 23.89° C | 49% | 1009.2 hPa | 0 mm | 1.79 m/s, 233° | 734 W/m² | - |
| 1777995730 | 23.33° C | 51% | 1009.3 hPa | 0 mm | 0.89 m/s, 149° | 727 W/m² | - |
| 1777995426 | 23.33° C | 51% | 1009.6 hPa | 0 mm | 1.34 m/s, 123° | 716 W/m² | - |
| 1777995124 | 22.78° C | 52% | 1009.5 hPa | 0 mm | 0.89 m/s, 128° | 551 W/m² | - |
| 1777994820 | 22.78° C | 53% | 1009.7 hPa | 0 mm | 1.34 m/s, 129° | 642 W/m² | - |
| 1777994516 | 22.78° C | 53% | 1009.8 hPa | 0 mm | 1.34 m/s, 162° | 705 W/m² | - |
| 1777994212 | 21.67° C | 55% | 1009.8 hPa | 0 mm | 0.89 m/s, 159° | 616 W/m² | - |
| 1777993909 | 21.67° C | 56% | 1009.9 hPa | 0 mm | 0.89 m/s, 165° | 358 W/m² | - |
| 1777993605 | 21.11° C | 56% | 1010.1 hPa | 0 mm | 1.34 m/s, 151° | 325 W/m² | - |
| 1777993303 | 21.11° C | 56% | 1010 hPa | 0 mm | 1.79 m/s, 149° | 639 W/m² | - |
| 1777992998 | 20.56° C | 57% | 1010.2 hPa | 0 mm | 1.79 m/s, 220° | 439 W/m² | - |
| 1777992697 | 20° C | 57% | 1010.2 hPa | 0 mm | 0.89 m/s, 154° | 392 W/m² | - |
| 1777992394 | 20° C | 59% | 1010.2 hPa | 0 mm | 0 m/s | 379 W/m² | - |
| 1777992091 | 20° C | 58% | 1010.4 hPa | 0 mm | 0 m/s | 442 W/m² | - |
| 1777991789 | 19.44° C | 61% | 1010.7 hPa | 0 mm | 0.45 m/s, 130° | 602 W/m² | - |
| 1777991486 | 18.89° C | 61% | 1010.6 hPa | 0 mm | 1.34 m/s, 131° | 159 W/m² | - |
| 1777991183 | 18.89° C | 62% | 1011 hPa | 0 mm | 0.45 m/s, 158° | 117 W/m² | - |
| 1777990880 | 18.33° C | 62% | 1010.9 hPa | 0 mm | 0.45 m/s, 112° | 288 W/m² | - |
* Rain latest hour (hover to see other rain measurements)
** Current wind speed in m/s (hover to see current wind gust speed)